METEOR 2-17 DEB, 35369

Orbit data source: Space-Track

METEOR 2-17 DEB, 35369 is space debris in LEO originally from a launch on Sat, 30 Jan 1988 UTC launched from the Plesetsk Missile And Space Complex (PKMTR). Debris objects in space refer to the collection of defunct objects orbiting the Earth. Examples of debris include non-operational satellites, rocket bodies, and fragments generated from explosions, collisions, or faulty payload assembly.

Loading next visibility...
Identifier
35369, 1988-005AD
Orbit
LEO
Country
Flag of CISCIS
Related business
Manufacturer
Unknown
Mission
Spacecraft
Bus & Motor
Unknown
Mass
Unknown
Launch date (UTC)
1988-01-30 (38 years ago)
Launch vehicle
Unknown
Launch site
Plesetsk Missile And Space Complex (PKMTR)
Object type
Payload
Rocket body
Debris
Shape & HBR
Unknown shape, 0.1 m
Radar Cross Section
Small (<0.1 m²)

Expand to show TLE details & history
Last TLE update: 1 day ago

TLE from 1 day ago
0 METEOR 2-17 DEB
1 35369U 88005AD  25305.68455887  .00002887  00000-0  20085-2 0  9995
2 35369  82.5227  96.7930 0014926 257.4647 117.5359 13.98391667714090
Epoch: 2025-11-01T16:25Z
TLE epoch observation values (Epoch: 2025-11-01T16:25:45.886Z)
Latitude
14.99522°
Longitude
171.14487°
Altitude
906.623 km
Speed
7.397 km/s
True Right ascension
06h 35m 11s
True Declination
14° 54' 41"
Sunlit
Object was in full shadow at epoch
Visualization orbit readout
Latitude
Unknown
Longitude
Unknown
Altitude
Unknown
Speed
Unknown
Apparent Right ascension
Unknown
Apparent Declination
Unknown
Sunlit
N/A
Visualization observer readout
Local Sidereal Time
00:01:04
Azimuth
Unknown
Elevation
Unknown
Doppler factor
Unknown
Orbital elements
Apogee altitude
907.361 km
Perigee altitude
885.645 km
Semi-major axis
7,274.64 km
Eccentricity
0.00149
Inclination
82.5227°
RAAN
96.793°
Arg. of periapsis
257.4647°
True anomaly
117.68743°
Mean anomaly
117.5359°
Eccentric anomaly
117.61168°
Mean motion
3.49805 °/min
Orbital period
102.91 mins
BSTAR
0.0020085
Loading maneuver chart data...
Computing Atmospheric mass density...
Loading historical data...
Loading historical data...
Loading historical data...
Loading historical data...
Loading historical data...
Loading historical data...
Loading historical data...

Documentation

Showing up to 5 results
|